User: anonymous   Login
Location: Stigler
(35.2540°N, 95.1230°W)
Time: 05:48:16
(UTC-06:00)
Language:

Cosmos 1805 - Orbit

View from above orbital plane
View from above orbital plane
View from above satellite
View from above satellite

Ground track
Ground track

The orbit data is extracted from the following two-line orbital elements,

1 17191U 86097A   17058.22379903  .00001391  00000-0  80115-4 0  9998
2 17191  82.4763 137.7713 0006621  95.0320 265.1666 15.11621089647030
Epoch (UTC): 27 February 2017 05:22:16
Eccentricity: 0.0006621
inclination: 82.4763°
perigee height: 526 km
apogee height: 536 km
right ascension of ascending node: 137.7713°
argument of perigee: 95.0320°
revolutions per day: 15.11621089
mean anomaly at epoch: 265.1666°
orbit number at epoch: 64703

The dashed part of the orbit path shows where the satellite is in the earth's shadow,  

DLR